#timestamp,LO_Frequency,Hit,StdDev 
1509375615.3,286046998.7,N
1509375635.2,286047000.5,N
1509375655.9,286047001.2,N
1509375675.7,286047000.6,N
1509375695.6,286047000.8,N
1509375715.4,286046999.9,N
1509375735.3,286047002.5,N
1509375755.1,286046999.7,N
1509375756.0,286046999.7,N
1509375775.8,286046999.9,N
1509375795.7,286047000.6,N
1509375815.5,286046999.1,N
1509375835.4,286046998.4,N
1509375855.2,286046996.6,N
1509375875.0,286046997.2,N
1509375875.9,286046997.2,N
1509375895.8,286046999.5,N
1509375915.6,286046998.4,N
1509375935.4,286046998.7,N
1509375955.3,286047001.2,N
1509375975.1,286046998.8,N
1509375995.9,286047001.1,N
1509376015.7,286047001.1,N
1509376035.5,286047000.6,N
1509376055.4,286047000.5,N
1509376075.2,286047000.3,N
1509376095.0,286047000.4,N
1509376095.9,286047000.4,N
1509376115.8,286046999.0,N
1509376135.6,286046999.0,N
1509376155.5,286047000.7,N
1509376175.3,286046998.1,N
1509376195.1,286047000.9,N
1509376215.9,286046999.7,N
1509376235.7,286046999.8,N
1509376255.5,286047002.8,N
1509376275.4,286047002.6,N
1509376295.2,286047003.6,N
1509376315.0,286047004.0,N
1509376316.0,286047004.0,N
1509376335.8,286047001.9,N
1509376355.6,286046999.9,N
1509376375.5,286046998.3,N
1509376395.3,286047001.0,N
1509376415.1,286047001.1,N
1509376435.9,286047002.6,N
1509376455.7,286047002.4,N
1509376475.6,286047001.0,N
1509376495.4,286047000.3,N
1509376515.2,286047001.0,N
1509376535.1,286047000.8,N
1509376536.0,286047000.8,N
1509376555.8,286047000.9,N
1509376575.6,286046999.4,N
1509376595.5,286046997.4,N
1509376615.3,286046999.2,N
1509376635.1,286046998.8,N
1509376655.9,286046999.1,N
1509376675.7,286046996.5,N
1509376695.6,286046999.2,N
1509376715.4,286046996.9,N
1509376735.2,286046996.8,N
1509376755.1,286046995.0,N
1509376756.0,286046995.0,N
1509376775.8,286046997.7,N
1509376795.6,286046996.9,N
1509376815.5,286046997.8,N
1509376835.3,286046998.3,N
1509376855.2,286046998.9,N
1509376875.9,286046998.2,N
1509376895.7,286046999.3,N
1509376915.6,286046998.4,N
1509376935.4,286046999.3,N
1509376955.2,286046998.9,N
1509376975.1,286046998.8,N
1509376976.0,286046998.8,N
1509376995.8,286046999.0,N
1509377015.7,286046996.9,N
1509377035.5,286046997.0,N
1509377055.3,286047000.9,N
1509377075.2,286047000.3,N
1509377095.0,286047001.0,N
1509377095.9,286047001.0,N
1509377115.7,286047000.4,N
1509377135.6,286047000.5,N
1509377155.4,286047001.2,N
1509377175.3,286046998.7,N
1509377195.1,286046998.8,N
1509377215.8,286046998.6,N
1509377235.7,286046998.9,N
1509377255.5,286046996.5,N
1509377275.4,286046999.1,N
1509377295.2,286046996.8,N
1509377315.0,286046996.9,N
1509377315.9,286046996.9,N
1509377335.8,286046996.9,N
1509377355.6,286046996.5,N
1509377375.4,286046996.6,N
1509377395.3,286046999.4,N
1509377415.1,286046999.3,N
1509377435.9,286046997.6,N
1509377455.7,286046996.9,N
1509377475.5,286046999.5,N
1509377495.4,286046998.8,N
1509377515.2,286046998.4,N
1509377535.0,286046998.1,N
1509377536.0,286046998.1,N
1509377555.8,286046996.9,N
1509377575.6,286046999.2,N
1509377595.5,286046996.7,N
1509377615.3,286046999.4,N
1509377635.1,286046998.8,N
1509377655.9,286046999.2,N
1509377675.7,286047001.1,N
1509377695.6,286046999.9,N
1509377715.4,286047001.2,N
1509377735.2,286046998.7,N
1509377755.1,286047000.6,N
1509377756.0,286047000.6,N
1509377775.8,286047000.9,N
1509377795.7,286046998.4,N
1509377815.5,286046999.2,N
1509377835.3,286046996.6,N
1509377855.2,286046996.5,N
1509377875.0,286046997.3,N
1509377875.9,286046997.3,N
1509377895.7,286046997.3,N
1509377915.6,286046997.4,N
1509377935.4,286046996.8,N
1509377955.3,286046996.6,N
1509377975.1,286046996.7,N
1509377976.0,286046996.7,N
1509377995.8,286046996.6,N
1509378015.7,286046998.1,N
1509378035.5,286047000.5,N
1509378055.4,286047000.6,N
1509378075.2,286047001.0,N
1509378095.0,286047000.8,N
1509378095.9,286047000.8,N
1509378115.8,286047001.2,N
1509378135.6,286046998.5,N
1509378155.4,286046998.3,N
1509378175.3,286047001.1,N
1509378195.1,286046998.6,N
1509378215.9,286046998.7,N
1509378235.7,286046998.8,N
1509378255.5,286046996.7,N
1509378275.4,286046998.1,N
1509378295.2,286046996.8,N
1509378315.0,286046999.4,N
1509378315.9,286046999.4,N
1509378335.8,286046999.2,N
1509378355.6,286046997.1,N
1509378375.5,286046997.5,N
1509378395.3,286046994.9,Y
1509378415.1,286046998.7,P
1509378435.9,286046999.4,P
1509378455.7,286046997.9,P
1509378475.5,286046997.3,Y
1509378495.4,286046999.6,P
1509378515.2,286047000.8,N
1509378535.1,286047001.2,N
1509378536.0,286047001.2,N
1509378555.8,286047000.8,N
1509378575.6,286047001.1,N
1509378595.5,286046998.7,N
1509378615.3,286046997.9,N
1509378635.1,286046996.7,N
1509378655.9,286046997.0,N
1509378675.7,286046996.6,N
1509378695.6,286046999.3,N
1509378715.4,286046998.7,N
1509378735.2,286046999.0,N
1509378755.1,286047001.2,N
1509378756.0,286047001.2,N
1509378775.8,286047000.8,N
1509378795.6,286047000.5,N
1509378815.5,286046999.9,N
1509378835.3,286047002.5,N
1509378855.2,286047001.9,N
1509378875.0,286047011.9,Y
1509378875.9,286047001.9,P
1509378895.7,286047002.8,N
1509378915.6,286047002.4,N
1509378935.4,286047000.1,N
1509378955.3,286046998.1,N
1509378975.1,286047000.2,N
1509378976.0,286047000.2,N
1509378995.8,286047000.0,N
1509379015.7,286047000.5,N
1509379035.5,286047000.2,N
1509379055.3,286047001.2,N
1509379075.2,286046999.6,N
1509379095.0,286046999.0,N
1509379095.9,286046999.0,N
1509379115.8,286046998.5,N
1509379135.6,286046998.7,N
1509379155.4,286046998.8,N
1509379175.3,286046998.6,N
1509379195.1,286047000.6,N
